User: anonymous   Login
Location: Unspecified
(0.0000°N, 0.0000°E)
Time: 18:52:47
(UTC+00:00)
Language:

A-11 Canister half - Orbit

View from above orbital plane
View from above orbital plane
View from above satellite
View from above satellite

Ground track
Ground track

The orbit data is extracted from the following two-line orbital elements,

1 00051U 60009C   16146.09424770 -.00000112  00000-0 -24844-3 0  9993
2 00051  47.2123 259.6204 0105070  70.5952 290.6158 12.18262732483129
Epoch (UTC): 25 May 2016 02:15:43
Eccentricity: 0.0105070
inclination: 47.2123°
perigee height: 1516 km
apogee height: 1684 km
right ascension of ascending node: 259.6204°
argument of perigee: 70.5952°
revolutions per day: 12.18262732
mean anomaly at epoch: 290.6158°
orbit number at epoch: 48312

The dashed part of the orbit path shows where the satellite is in the earth's shadow,  

DLR